Time,TemperatureF,DewpointF,PressureIn,WindDirection,WindDirectionDegrees,WindSpeedMPH,WindSpeedGustMPH,Humidity,HourlyPrecipIn,Conditions,Clouds,dailyrainin,SoftwareType,DateUTC
2013-04-15 00:54:00,43.6,39.0,29.85,East,89,2.0,2.0,84,0.00,,,0.00,weatherlink.com 1.10,2013-04-15 07:54:00,
2013-04-15 01:09:00,43.4,40.0,29.85,East,88,1.0,3.0,86,0.00,,,0.00,weatherlink.com 1.10,2013-04-15 08:09:00,
2013-04-15 01:24:00,43.2,39.0,29.85,East,89,2.0,2.0,86,0.00,,,0.00,weatherlink.com 1.10,2013-04-15 08:24:00,
2013-04-15 01:54:00,42.9,39.0,29.85,NNE,32,2.0,3.0,86,0.00,,,0.00,weatherlink.com 1.10,2013-04-15 08:54:00,
2013-04-15 02:09:00,42.5,39.0,29.85,NE,56,2.0,3.0,87,0.00,,,0.00,weatherlink.com 1.10,2013-04-15 09:09:00,
2013-04-15 02:24:00,42.0,39.0,29.85,NNE,24,1.0,2.0,88,0.00,,,0.00,weatherlink.com 1.10,2013-04-15 09:24:00,
2013-04-15 02:39:00,41.8,39.0,29.86,ESE,113,1.0,3.0,88,0.00,,,0.00,weatherlink.com 1.10,2013-04-15 09:39:00,
2013-04-15 02:54:00,41.1,38.0,29.86,NNE,28,0.0,3.0,90,0.00,,,0.00,weatherlink.com 1.10,2013-04-15 09:54:00,
2013-04-15 03:09:00,41.3,39.0,29.86,NNE,18,0.0,2.0,90,0.00,,,0.00,weatherlink.com 1.10,2013-04-15 10:09:00,
2013-04-15 03:24:00,41.6,39.0,29.86,SE,129,4.0,5.0,90,0.00,,,0.00,weatherlink.com 1.10,2013-04-15 10:24:00,
2013-04-15 03:39:00,41.8,39.0,29.87,ENE,59,0.0,1.0,90,0.00,,,0.00,weatherlink.com 1.10,2013-04-15 10:39:00,
2013-04-15 03:54:00,41.9,39.0,29.87,ENE,72,0.0,3.0,89,0.00,,,0.00,weatherlink.com 1.10,2013-04-15 10:54:00,
2013-04-15 04:09:00,41.7,39.0,29.87,NNE,26,6.0,7.0,90,0.00,,,0.00,weatherlink.com 1.10,2013-04-15 11:09:00,
2013-04-15 04:24:00,41.3,39.0,29.87,ENE,66,2.0,8.0,92,0.01,,,0.01,weatherlink.com 1.10,2013-04-15 11:24:00,
2013-04-15 04:39:00,40.7,39.0,29.88,NNE,32,2.0,7.0,93,0.01,,,0.01,weatherlink.com 1.10,2013-04-15 11:39:00,
2013-04-15 04:54:00,40.5,39.0,29.88,NE,42,1.0,6.0,93,0.02,,,0.02,weatherlink.com 1.10,2013-04-15 11:54:00,
2013-04-15 05:09:00,40.6,39.0,29.88,East,81,3.0,4.0,94,0.03,,,0.03,weatherlink.com 1.10,2013-04-15 12:09:00,
2013-04-15 05:24:00,40.6,39.0,29.88,East,84,2.0,4.0,94,0.02,,,0.03,weatherlink.com 1.10,2013-04-15 12:24:00,
2013-04-15 05:39:00,40.4,39.0,29.89,NNE,26,2.0,6.0,94,0.02,,,0.03,weatherlink.com 1.10,2013-04-15 12:39:00,
2013-04-15 05:54:00,40.3,39.0,29.89,NNE,15,1.0,4.0,94,0.01,,,0.03,weatherlink.com 1.10,2013-04-15 12:54:00,
2013-04-15 06:09:00,40.2,39.0,29.89,NNE,18,0.0,3.0,94,0.00,,,0.03,weatherlink.com 1.10,2013-04-15 13:09:00,
2013-04-15 06:24:00,40.1,39.0,29.89,NNW,333,2.0,4.0,94,0.00,,,0.03,weatherlink.com 1.10,2013-04-15 13:24:00,
2013-04-15 06:39:00,40.0,39.0,29.89,NNW,330,1.0,3.0,94,0.00,,,0.03,weatherlink.com 1.10,2013-04-15 13:39:00,
2013-04-15 06:54:00,40.0,39.0,29.90,NNW,330,1.0,2.0,95,0.00,,,0.03,weatherlink.com 1.10,2013-04-15 13:54:00,
2013-04-15 07:09:00,40.0,39.0,29.91,NNE,13,0.0,4.0,95,0.00,,,0.03,weatherlink.com 1.10,2013-04-15 14:09:00,
2013-04-15 07:24:00,40.1,39.0,29.91,NNE,24,1.0,3.0,95,0.00,,,0.03,weatherlink.com 1.10,2013-04-15 14:24:00,
2013-04-15 07:55:00,40.6,39.0,29.92,NNE,29,3.0,5.0,95,0.00,,,0.03,weatherlink.com 1.10,2013-04-15 14:55:00,
2013-04-15 08:10:00,41.4,40.0,29.93,NNE,24,1.0,7.0,95,0.00,,,0.03,weatherlink.com 1.10,2013-04-15 15:10:00,
2013-04-15 08:25:00,42.2,41.0,29.93,NNE,22,2.0,6.0,94,0.00,,,0.00,weatherlink.com 1.10,2013-04-15 15:25:00,
2013-04-15 08:40:00,42.1,41.0,29.94,NE,54,1.0,7.0,94,0.00,,,0.00,weatherlink.com 1.10,2013-04-15 15:40:00,
2013-04-15 08:55:00,42.4,41.0,29.94,North,360,2.0,6.0,93,0.00,,,0.00,weatherlink.com 1.10,2013-04-15 15:55:00,
2013-04-15 09:10:00,42.7,41.0,29.94,North,355,4.0,9.0,93,0.00,,,0.00,weatherlink.com 1.10,2013-04-15 16:10:00,
2013-04-15 09:25:00,44.5,42.0,29.94,NE,49,0.0,6.0,91,0.00,,,0.00,weatherlink.com 1.10,2013-04-15 16:25:00,
2013-04-15 09:40:00,45.6,42.0,29.95,NE,46,0.0,5.0,86,0.00,,,0.00,weatherlink.com 1.10,2013-04-15 16:40:00,
2013-04-15 09:55:00,46.9,42.0,29.94,West,261,1.0,6.0,84,0.00,,,0.00,weatherlink.com 1.10,2013-04-15 16:55:00,
2013-04-15 10:10:00,46.3,41.0,29.95,NNW,335,5.0,9.0,82,0.00,,,0.00,weatherlink.com 1.10,2013-04-15 17:10:00,
2013-04-15 10:25:00,45.9,41.0,29.95,NW,306,1.0,6.0,82,0.00,,,0.00,weatherlink.com 1.10,2013-04-15 17:25:00,
2013-04-15 10:40:00,46.4,42.0,29.96,NE,49,1.0,6.0,83,0.00,,,0.00,weatherlink.com 1.10,2013-04-15 17:40:00,
2013-04-15 10:55:00,48.2,42.0,29.96,WNW,282,3.0,6.0,80,0.00,,,0.00,weatherlink.com 1.10,2013-04-15 17:55:00,
2013-04-15 11:10:00,48.3,42.0,29.96,ENE,60,2.0,6.0,78,0.00,,,0.00,weatherlink.com 1.10,2013-04-15 18:10:00,
2013-04-15 11:25:00,48.6,42.0,29.96,NNW,336,4.0,6.0,79,0.00,,,0.00,weatherlink.com 1.10,2013-04-15 18:25:00,
2013-04-15 11:40:00,49.1,42.0,29.96,WNW,286,3.0,6.0,77,0.00,,,0.00,weatherlink.com 1.10,2013-04-15 18:40:00,
2013-04-15 11:55:00,49.7,43.0,29.96,WSW,244,2.0,6.0,77,0.00,,,0.00,weatherlink.com 1.10,2013-04-15 18:55:00,
2013-04-15 12:10:00,50.1,44.0,29.96,WSW,249,5.0,5.0,78,0.00,,,0.00,weatherlink.com 1.10,2013-04-15 19:10:00,
2013-04-15 12:25:00,50.0,43.0,29.97,WNW,283,6.0,9.0,76,0.00,,,0.00,weatherlink.com 1.10,2013-04-15 19:25:00,
2013-04-15 12:40:00,49.2,44.0,29.96,West,279,10.0,12.0,81,0.00,,,0.00,weatherlink.com 1.10,2013-04-15 19:40:00,
2013-04-15 12:55:00,49.5,44.0,29.97,WNW,292,9.0,11.0,80,0.00,,,0.00,weatherlink.com 1.10,2013-04-15 19:55:00,
2013-04-15 13:10:00,49.6,43.0,29.97,NW,313,6.0,12.0,79,0.00,,,0.00,weatherlink.com 1.10,2013-04-15 20:10:00,
2013-04-15 13:25:00,49.8,43.0,29.97,WSW,248,11.0,15.0,76,0.00,,,0.00,weatherlink.com 1.10,2013-04-15 20:25:00,
2013-04-15 13:40:00,50.9,44.0,29.97,WNW,303,2.0,14.0,77,0.00,,,0.00,weatherlink.com 1.10,2013-04-15 20:40:00,
2013-04-15 13:55:00,51.6,44.0,29.97,NNW,334,6.0,12.0,74,0.00,,,0.00,weatherlink.com 1.10,2013-04-15 20:55:00,
2013-04-15 14:10:00,50.9,43.0,29.97,WNW,290,7.0,14.0,75,0.00,,,0.00,weatherlink.com 1.10,2013-04-15 21:10:00,
2013-04-15 14:25:00,52.7,44.0,29.96,WNW,288,3.0,9.0,71,0.00,,,0.00,weatherlink.com 1.10,2013-04-15 21:25:00,
2013-04-15 14:40:00,52.6,43.0,29.97,West,280,4.0,13.0,70,0.00,,,0.00,weatherlink.com 1.10,2013-04-15 21:40:00,
2013-04-15 14:55:00,52.6,43.0,29.97,WSW,254,8.0,13.0,71,0.00,,,0.00,weatherlink.com 1.10,2013-04-15 21:55:00,
2013-04-15 15:11:00,53.0,42.0,29.98,WNW,287,4.0,13.0,67,0.00,,,0.00,weatherlink.com 1.10,2013-04-15 22:11:00,
2013-04-15 15:25:00,54.4,44.0,29.97,North,351,4.0,12.0,69,0.00,,,0.00,weatherlink.com 1.10,2013-04-15 22:25:00,
2013-04-15 15:40:00,53.9,43.0,29.97,WNW,282,3.0,14.0,66,0.00,,,0.00,weatherlink.com 1.10,2013-04-15 22:40:00,
2013-04-15 15:56:00,55.3,43.0,29.97,West,272,4.0,14.0,63,0.00,,,0.00,weatherlink.com 1.10,2013-04-15 22:56:00,
2013-04-15 16:11:00,54.1,42.0,29.98,NNE,30,5.0,10.0,64,0.00,,,0.00,weatherlink.com 1.10,2013-04-15 23:11:00,
2013-04-15 16:26:00,53.4,41.0,29.99,NW,323,7.0,8.0,63,0.00,,,0.00,weatherlink.com 1.10,2013-04-15 23:26:00,
2013-04-15 16:56:00,47.9,40.0,30.01,NE,51,4.0,9.0,75,0.00,,,0.00,weatherlink.com 1.10,2013-04-15 23:56:00,
2013-04-15 17:11:00,46.3,40.0,30.01,NE,48,4.0,15.0,80,0.02,,,0.02,weatherlink.com 1.10,2013-04-16 00:11:00,
2013-04-15 17:26:00,46.1,40.0,30.00,South,183,5.0,5.0,78,0.04,,,0.04,weatherlink.com 1.10,2013-04-16 00:26:00,
2013-04-15 17:41:00,47.3,42.0,30.00,North,5,2.0,4.0,81,0.04,,,0.04,weatherlink.com 1.10,2013-04-16 00:41:00,
2013-04-15 17:56:00,47.4,41.0,30.00,East,100,3.0,5.0,79,0.04,,,0.04,weatherlink.com 1.10,2013-04-16 00:56:00,
2013-04-15 18:11:00,48.6,42.0,30.01,East,80,6.0,8.0,79,0.01,,,0.04,weatherlink.com 1.10,2013-04-16 01:11:00,
2013-04-15 18:41:00,49.5,41.0,30.01,ESE,121,4.0,4.0,73,0.00,,,0.04,weatherlink.com 1.10,2013-04-16 01:41:00,
2013-04-15 18:56:00,49.6,41.0,30.02,East,96,2.0,5.0,71,0.00,,,0.04,weatherlink.com 1.10,2013-04-16 01:56:00,
2013-04-15 19:11:00,49.7,40.0,30.02,ESE,117,4.0,7.0,70,0.00,,,0.04,weatherlink.com 1.10,2013-04-16 02:11:00,
2013-04-15 19:26:00,49.7,40.0,30.02,ESE,106,4.0,5.0,70,0.00,,,0.04,weatherlink.com 1.10,2013-04-16 02:26:00,
2013-04-15 19:41:00,49.3,39.0,30.02,East,91,2.0,5.0,69,0.00,,,0.04,weatherlink.com 1.10,2013-04-16 02:41:00,
2013-04-15 19:56:00,48.6,38.0,30.03,East,92,3.0,4.0,68,0.00,,,0.04,weatherlink.com 1.10,2013-04-16 02:56:00,
2013-04-15 20:11:00,48.0,39.0,30.03,ESE,105,3.0,4.0,71,0.00,,,0.04,weatherlink.com 1.10,2013-04-16 03:11:00,
2013-04-15 20:26:00,47.9,39.0,30.04,ENE,62,2.0,4.0,72,0.00,,,0.04,weatherlink.com 1.10,2013-04-16 03:26:00,
2013-04-15 20:41:00,47.2,39.0,30.05,East,92,1.0,4.0,74,0.00,,,0.04,weatherlink.com 1.10,2013-04-16 03:41:00,
2013-04-15 20:56:00,47.4,42.0,30.06,SW,219,0.0,4.0,82,0.00,,,0.04,weatherlink.com 1.10,2013-04-16 03:56:00,
2013-04-15 21:11:00,47.2,43.0,30.06,SE,129,1.0,2.0,85,0.00,,,0.04,weatherlink.com 1.10,2013-04-16 04:11:00,
2013-04-15 21:26:00,46.3,42.0,30.07,SE,129,1.0,2.0,86,0.00,,,0.04,weatherlink.com 1.10,2013-04-16 04:26:00,
2013-04-15 21:41:00,45.9,42.0,30.08,NNE,26,4.0,5.0,86,0.00,,,0.04,weatherlink.com 1.10,2013-04-16 04:41:00,
2013-04-15 21:56:00,45.0,41.0,30.09,NNE,19,0.0,4.0,84,0.00,,,0.04,weatherlink.com 1.10,2013-04-16 04:56:00,
2013-04-15 22:11:00,44.8,40.0,30.08,NNE,13,0.0,4.0,83,0.00,,,0.04,weatherlink.com 1.10,2013-04-16 05:11:00,
2013-04-15 22:26:00,45.4,38.0,30.09,ENE,57,4.0,9.0,76,0.00,,,0.04,weatherlink.com 1.10,2013-04-16 05:26:00,
2013-04-15 22:41:00,47.2,37.0,30.07,NNE,14,5.0,15.0,68,0.01,,,0.05,weatherlink.com 1.10,2013-04-16 05:41:00,
2013-04-15 22:56:00,48.1,37.0,30.07,NE,44,3.0,11.0,65,0.01,,,0.05,weatherlink.com 1.10,2013-04-16 05:56:00,
2013-04-15 23:11:00,46.7,38.0,30.07,ENE,65,3.0,11.0,71,0.01,,,0.05,weatherlink.com 1.10,2013-04-16 06:11:00,
2013-04-15 23:26:00,46.8,37.0,30.07,NE,53,1.0,7.0,70,0.01,,,0.05,weatherlink.com 1.10,2013-04-16 06:26:00,
2013-04-15 23:41:00,46.8,38.0,30.08,NE,55,1.0,6.0,71,0.00,,,0.05,weatherlink.com 1.10,2013-04-16 06:41:00,
2013-04-15 23:56:00,46.1,38.0,30.09,NE,38,1.0,6.0,73,0.00,,,0.05,weatherlink.com 1.10,2013-04-16 06:56:00,